Location: Innerarity Island Observatory
(30.3139°N, 87.4867°W)
Time: 14:58:23
(UTC-05:00)

Amateur Radio Satellites - All Passes

Search period start: 23 July 2014 14:28
Search period end: 24 July 2014 14:28
Location: Innerarity Island Observatory, 30.3139°N, 87.4867°W

Satellite Date Start Highest point End Downlink Frequencies (MHz)
Time Altitude Azimuth
Oscar 19 23 Jul 14:35:22 14:39:41 28° 263° (W) 14:44:02 437.125 CW, 437.150 USB
JAS-1B 23 Jul 14:52:09 15:00:11 82° 74° (ENE) 15:09:40 435.800 - 435.900 CW/SSB
TMSAT-1 23 Jul 14:54:58 15:00:03 50° 74° (ENE) 15:05:10 436.925 FM
AO-7 23 Jul 15:03:59 15:10:11 24° 61° (ENE) 15:16:23 29.400 - 29.500 MHz
UOSAT-12 23 Jul 15:04:26 15:08:31 34° 112° (ESE) 15:12:41 437.025 FM, 437.400 FM
Oscar 16 23 Jul 15:04:50 15:07:12 13° 266° (W) 15:09:35 437.025 USB, Beacon 2401.1428
ITAMSAT 1 23 Jul 15:10:34 15:15:01 28° 262° (W) 15:19:29 435.822 SSB
Gurwin Techsat 1B 23 Jul 15:15:07 15:20:24 71° 258° (WSW) 15:25:43 435.225 FM
AO-40 23 Jul 15:23:51 15:27:19 13° 200° (SSW) 15:30:00 Beacon 2401.320
AO-27 23 Jul 15:29:12 15:32:43 18° 265° (W) 15:36:15 436.795 MHz FM
RS-15 23 Jul 15:30:38 15:41:13 47° 305° (NW) 15:51:38 29.354 - 29.394 USB, Beacon 29.352 USB
Uribyol 2 23 Jul 15:33:10 15:36:15 16° 265° (W) 15:39:21 436.500 FM
AO-Echo 23 Jul 15:41:41 15:44:15 14° 267° (W) 15:46:51 ?
Uosat F 23 Jul 15:52:22 15:57:02 39° 72° (ENE) 16:01:43 435.120 FM
OPAL 23 Jul 16:27:55 16:32:47 47° 102° (ESE) 16:37:42 ?
KITSAT 1 23 Jul 16:30:33 16:38:15 46° 59° (ENE) 16:45:53 435.175 FM
TMSAT-1 23 Jul 16:37:15 16:40:09 15° 266° (W) 16:43:04 436.925 FM
UOSAT-12 23 Jul 16:45:19 16:48:42 20° 306° (NW) 16:52:09 437.025 FM, 437.400 FM
JAS-1B 23 Jul 16:46:52 16:51:44 17° 272° (W) 16:57:02 435.800 - 435.900 CW/SSB
AO-7 23 Jul 16:54:00 17:02:15 65° 256° (WSW) 17:10:33 29.400 - 29.500 MHz
Hamsat 23 Jul 17:25:45 17:28:53 21° 72° (ENE) 17:32:01 145.90 MHz
Uosat F 23 Jul 17:32:35 17:35:53 18° 265° (W) 17:39:12 435.120 FM
Saudisat 1A 23 Jul 17:39:58 17:43:10 19° 54° (NE) 17:46:20 436.775 MHz
Oscar 10/S400 23 Jul 17:43:15 18:01:51 26° 149° (SSE) 18:17:28 145.825 - 145.975 CW/USB, Beacon 145.810 USB
RS-15 23 Jul 17:54:55 17:57:18 11° 333° (NNW) 17:59:40 29.354 - 29.394 USB, Beacon 29.352 USB
JAS-2 23 Jul 18:07:19 18:15:01 63° 73° (ENE) 18:22:35 435.800 - 435.900 CW/SSB, 435.910 FM
OPAL 23 Jul 18:08:16 18:11:15 16° 295° (WNW) 18:14:15 ?
KITSAT 1 23 Jul 18:26:28 18:33:17 31° 254° (WSW) 18:40:04 435.175 FM
STRAND 1 23 Jul 18:42:01 18:45:57 22° 96° (E) 18:49:51 ?
SO-67 23 Jul 18:47:53 18:50:42 24° 74° (ENE) 18:53:32 435.3500 MHz FM
Hamsat 23 Jul 19:01:26 19:04:41 22° 264° (W) 19:07:58 145.90 MHz
Saudisat 1A 23 Jul 19:18:52 19:22:45 31° 248° (WSW) 19:26:38 436.775 MHz
JAS-2 23 Jul 19:54:27 20:00:13 22° 266° (W) 20:05:59 435.800 - 435.900 CW/SSB, 435.910 FM
HO-68 23 Jul 20:15:22 20:21:30 32° 66° (ENE) 20:27:37 435.675 MHz FM
STRAND 1 23 Jul 20:20:37 20:25:05 32° 289° (WNW) 20:29:33 ?
SO-67 23 Jul 20:22:17 20:23:44 12° 266° (W) 20:25:11 435.3500 MHz FM
UKube-1 23 Jul 20:49:05 20:52:49 28° 72° (ENE) 20:56:34 145.840 MHz, 145.915 MHz
Oscar 11 23 Jul 21:40:12 21:44:23 52° 75° (ENE) 21:48:34 145.825 FM, Beacon 2401.500 USB
FUNcube-1 23 Jul 21:46:27 21:49:41 20° 71° (ENE) 21:52:52 145.950 - 145.970 MHz USB
HO-68 23 Jul 22:02:20 22:08:56 40° 260° (W) 22:15:34 435.675 MHz FM
UKube-1 23 Jul 22:25:58 22:28:59 18° 264° (W) 22:32:00 145.840 MHz, 145.915 MHz
RS-15 23 Jul 22:26:56 22:36:08 29° 48° (NE) 22:45:32 29.354 - 29.394 USB, Beacon 29.352 USB
Lituanica SAT-1 23 Jul 22:43:29 22:44:53 16° 129° (SE) 22:46:18 437.275 MHz beacon
MaSat-1 23 Jul 22:45:48 22:49:16 42° 296° (WNW) 22:53:21 437.345 MHz
SO-50 23 Jul 22:46:29 22:50:42 30° 57° (ENE) 22:54:57 436.795 FM
FUNcube-1 23 Jul 23:22:11 23:25:53 26° 263° (W) 23:29:32 145.950 - 145.970 MHz USB
AO-40 23 Jul 23:28:07 05:36:14 51° 182° (S) 10:24:16 Beacon 2401.320
Lituanica SAT-1 24 Jul 00:16:56 00:17:38 11° 322° (NW) 00:18:22 437.275 MHz beacon
ISS 24 Jul 00:17:40 00:20:39 31° 129° (SE) 00:23:38 145.800 FM
SO-50 24 Jul 00:27:19 00:31:05 23° 250° (WSW) 00:34:52 436.795 FM
Sapphire 24 Jul 00:32:10 00:35:01 15° 104° (ESE) 00:37:51 437.095 MHz 1200 baud AX-25 AFSK
RS-15 24 Jul 00:38:15 00:49:18 72° 247° (WSW) 01:00:49 29.354 - 29.394 USB, Beacon 29.352 USB
PCSat 24 Jul 01:03:54 01:08:44 35° 108° (ESE) 01:13:36 145.825 MHz
Oscar 19 24 Jul 01:14:43 01:17:28 14° 94° (E) 01:20:13 437.125 CW, 437.150 USB
UOSAT-12 24 Jul 01:18:54 01:23:37 76° 62° (ENE) 01:28:14 437.025 FM, 437.400 FM
Oscar 16 24 Jul 01:40:34 01:45:04 30° 98° (E) 01:49:32 437.025 USB, Beacon 2401.1428
ITAMSAT 1 24 Jul 01:51:11 01:53:58 15° 94° (E) 01:56:45 435.822 SSB
ISS 24 Jul 01:54:58 01:57:23 18° 323° (NW) 01:59:49 145.800 FM
AO-27 24 Jul 02:07:45 02:11:50 23° 97° (E) 02:15:53 436.795 MHz FM
Uribyol 2 24 Jul 02:10:47 02:15:04 26° 97° (E) 02:19:20 436.500 FM
Sapphire 24 Jul 02:12:38 02:17:53 54° 297° (WNW) 02:23:11 437.095 MHz 1200 baud AX-25 AFSK
AO-Echo 24 Jul 02:14:11 02:18:29 27° 96° (E) 02:22:39 ?
JAS-1B 24 Jul 02:46:01 02:54:36 40° 96° (E) 03:01:59 435.800 - 435.900 CW/SSB
PCSat 24 Jul 02:47:48 02:52:09 24° 303° (WNW) 02:56:31 145.825 MHz
Oscar 19 24 Jul 02:52:01 02:56:59 49° 286° (WNW) 03:01:56 437.125 CW, 437.150 USB
RS-15 24 Jul 02:58:26 02:59:53 10° 261° (W) 03:01:19 29.354 - 29.394 USB, Beacon 29.352 USB
TMSAT-1 24 Jul 03:16:59 03:21:41 32° 98° (E) 03:26:21 436.925 FM
Oscar 16 24 Jul 03:20:07 03:24:13 24° 290° (WNW) 03:28:19 437.025 USB, Beacon 2401.1428
ITAMSAT 1 24 Jul 03:28:40 03:33:38 48° 287° (WNW) 03:38:34 435.822 SSB
Gurwin Techsat 1B 24 Jul 03:37:14 03:42:34 77° 102° (ESE) 03:47:51 435.225 FM
OPAL 24 Jul 03:37:34 03:42:14 43° 71° (ENE) 03:46:55 ?
AO-27 24 Jul 03:46:46 03:51:17 31° 289° (WNW) 03:55:47 436.795 MHz FM
Uribyol 2 24 Jul 03:50:06 03:54:25 28° 290° (WNW) 03:58:43 436.500 FM
AO-Echo 24 Jul 03:52:59 03:57:05 25° 290° (WNW) 04:01:04 ?
Uosat F 24 Jul 04:06:44 04:10:19 20° 96° (E) 04:13:52 435.120 FM
JAS-1B 24 Jul 04:36:20 04:44:53 41° 294° (WNW) 04:52:25 435.800 - 435.900 CW/SSB
TMSAT-1 24 Jul 04:57:14 05:01:22 24° 291° (WNW) 05:05:30 436.925 FM
AO-7 24 Jul 05:02:06 05:10:22 65° 104° (ESE) 05:18:33 29.400 - 29.500 MHz
PANSAT 24 Jul 05:14:38 05:15:43 11° 154° (SSE) 05:16:48 not established
OPAL 24 Jul 05:18:24 05:21:14 15° 263° (W) 05:24:05 ?
Gurwin Techsat 1B 24 Jul 05:21:26 05:21:48 10° 296° (WNW) 05:22:10 435.225 FM
Uosat F 24 Jul 05:44:35 05:49:06 35° 288° (WNW) 05:53:36 435.120 FM
STRAND 1 24 Jul 05:52:59 05:56:30 19° 68° (ENE) 06:00:01 ?
Oscar 10/S400 24 Jul 06:40:28 08:06:41 33° 256° (WSW) 11:55:12 145.825 - 145.975 CW/USB, Beacon 145.810 USB
KITSAT 1 24 Jul 06:51:35 06:59:36 70° 112° (ESE) 07:07:39 435.175 FM
Hamsat 24 Jul 06:51:40 06:55:58 84° 282° (WNW) 07:00:17 145.90 MHz
PANSAT 24 Jul 06:51:55 06:55:26 34° 164° (SSE) 06:58:57 not established
AO-7 24 Jul 06:56:19 07:02:25 23° 300° (WNW) 07:08:30 29.400 - 29.500 MHz
JAS-2 24 Jul 07:09:51 07:15:53 86° 103° (ESE) 07:21:16 435.800 - 435.900 CW/SSB, 435.910 FM
MaSat-1 24 Jul 07:11:05 07:13:43 14° 56° (NE) 07:16:18 437.345 MHz
STRAND 1 24 Jul 07:30:33 07:35:20 39° 261° (W) 07:40:09 ?
Saudisat 1A 24 Jul 07:41:27 07:44:29 18° 109° (ESE) 07:47:32 436.775 MHz
SO-67 24 Jul 07:49:35 07:53:03 68° 100° (E) 07:56:30 435.3500 MHz FM
Lituanica SAT-1 24 Jul 08:05:31 08:07:12 20° 231° (SW) 08:08:52 437.275 MHz beacon
ISS 24 Jul 08:27:17 08:30:19 31° 41° (NE) 08:33:20 145.800 FM
PANSAT 24 Jul 08:31:36 08:35:26 64° 176° (S) 08:39:15 not established
MaSat-1 24 Jul 08:46:19 08:51:35 66° 251° (WSW) 08:56:28 437.345 MHz
KITSAT 1 24 Jul 08:49:33 08:55:36 23° 309° (NW) 09:01:42 435.175 FM
Saudisat 1A 24 Jul 09:19:51 09:23:48 32° 302° (WNW) 09:27:46 436.775 MHz
Oscar 11 24 Jul 09:34:56 09:37:28 15° 95° (E) 09:39:59 145.825 FM, Beacon 2401.500 USB
HO-68 24 Jul 09:35:43 09:42:43 56° 102° (ESE) 09:49:39 435.675 MHz FM
ISS 24 Jul 10:04:40 10:06:49 16° 234° (SW) 10:08:58 145.800 FM
PANSAT 24 Jul 10:11:44 10:15:31 55° 189° (S) 10:19:17 not established
UKube-1 24 Jul 10:18:29 10:22:49 67° 284° (WNW) 10:27:06 145.840 MHz, 145.915 MHz
Sapphire 24 Jul 11:06:32 11:11:29 36° 60° (ENE) 11:16:25 437.095 MHz 1200 baud AX-25 AFSK
Oscar 11 24 Jul 11:09:48 11:13:40 33° 287° (WNW) 11:17:33 145.825 FM, Beacon 2401.500 USB
FUNcube-1 24 Jul 11:16:15 11:20:26 87° 283° (WNW) 11:24:38 145.950 - 145.970 MHz USB
HO-68 24 Jul 11:24:38 11:29:52 23° 296° (WNW) 11:35:05 435.675 MHz FM
PCSat 24 Jul 11:40:09 11:45:36 82° 66° (ENE) 11:51:00 145.825 MHz
PANSAT 24 Jul 11:52:17 11:55:25 24° 200° (SSW) 11:58:32 not established
Oscar 19 24 Jul 12:27:24 12:29:19 12° 66° (ENE) 12:31:14 437.125 CW, 437.150 USB
RS-15 24 Jul 12:44:20 12:53:28 29° 105° (ESE) 13:02:18 29.354 - 29.394 USB, Beacon 29.352 USB
Sapphire 24 Jul 12:50:28 12:54:38 23° 254° (WSW) 12:58:47 437.095 MHz 1200 baud AX-25 AFSK
Oscar 16 24 Jul 12:52:25 12:56:30 25° 70° (ENE) 13:00:35 437.025 USB, Beacon 2401.1428
SO-50 24 Jul 12:56:09 13:00:09 34° 112° (ESE) 13:04:13 436.795 FM
ITAMSAT 1 24 Jul 13:04:30 13:06:56 13° 66° (ENE) 13:09:22 435.822 SSB
AO-27 24 Jul 13:20:47 13:24:35 21° 68° (ENE) 13:28:24 436.795 MHz FM
AO-Echo 24 Jul 13:21:36 13:25:30 22° 69° (ENE) 13:29:26 ?
Uribyol 2 24 Jul 13:23:28 13:27:30 23° 69° (ENE) 13:31:32 436.500 FM
JAS-1B 24 Jul 13:23:54 13:30:00 22° 59° (ENE) 13:36:36 435.800 - 435.900 CW/SSB
Oscar 19 24 Jul 14:03:02 14:08:04 61° 259° (W) 14:13:08 437.125 CW, 437.150 USB
